<?xml version="1.0"?>
<gpx xmlns="http://www.topografix.com/GPX/1/1" xmlns:xsi="http://www.w3.org/2001/XMLSchema-instance" version="1.1" creator="GPX RubyGem 1.0.0 -- http://dougfales.github.io/gpx/" xsi:schemaLocation="http://www.topografix.com/GPX/1/1 http://www.topografix.com/GPX/1/1/gpx.xsd">
  <metadata>
    <name/>
    <time>2026-05-10T06:21:32+00:00</time>
    <bound minlat="90.0" minlon="180.0" maxlat="-90.0" maxlon="-180.0"/>
  </metadata>
  <trk>
    <name/>
    <trkseg>
      <trkpt lat="51.163153" lon="13.478983">
        <time>1970-01-01T00:00:00+00:00</time>
        <ele>98.0</ele>
      </trkpt>
      <trkpt lat="51.163522" lon="13.478583">
        <time>1970-01-01T00:00:00+00:00</time>
        <ele>99.0</ele>
      </trkpt>
      <trkpt lat="51.163735" lon="13.478339">
        <time>1970-01-01T00:00:00+00:00</time>
        <ele>102.0</ele>
      </trkpt>
      <trkpt lat="51.163973" lon="13.478051">
        <time>1970-01-01T00:00:00+00:00</time>
        <ele>103.0</ele>
      </trkpt>
      <trkpt lat="51.164189" lon="13.477812">
        <time>1970-01-01T00:00:00+00:00</time>
        <ele>105.0</ele>
      </trkpt>
      <trkpt lat="51.164649" lon="13.47722">
        <time>1970-01-01T00:00:00+00:00</time>
        <ele>105.0</ele>
      </trkpt>
      <trkpt lat="51.164908" lon="13.476974">
        <time>1970-01-01T00:00:00+00:00</time>
        <ele>104.0</ele>
      </trkpt>
      <trkpt lat="51.165132" lon="13.476807">
        <time>1970-01-01T00:00:00+00:00</time>
        <ele>101.0</ele>
      </trkpt>
      <trkpt lat="51.165196" lon="13.477038">
        <time>1970-01-01T00:00:00+00:00</time>
        <ele>105.0</ele>
      </trkpt>
      <trkpt lat="51.165216" lon="13.477107">
        <time>1970-01-01T00:00:00+00:00</time>
        <ele>107.0</ele>
      </trkpt>
      <trkpt lat="51.165294" lon="13.477059">
        <time>1970-01-01T00:00:00+00:00</time>
        <ele>106.0</ele>
      </trkpt>
      <trkpt lat="51.165319" lon="13.477211">
        <time>1970-01-01T00:00:00+00:00</time>
        <ele>109.0</ele>
      </trkpt>
      <trkpt lat="51.165297" lon="13.477417">
        <time>1970-01-01T00:00:00+00:00</time>
        <ele>113.0</ele>
      </trkpt>
      <trkpt lat="51.165265" lon="13.477567">
        <time>1970-01-01T00:00:00+00:00</time>
        <ele>115.0</ele>
      </trkpt>
      <trkpt lat="51.165242" lon="13.477669">
        <time>1970-01-01T00:00:00+00:00</time>
        <ele>116.0</ele>
      </trkpt>
      <trkpt lat="51.165291" lon="13.477717">
        <time>1970-01-01T00:00:00+00:00</time>
        <ele>116.0</ele>
      </trkpt>
      <trkpt lat="51.165373" lon="13.477779">
        <time>1970-01-01T00:00:00+00:00</time>
        <ele>116.0</ele>
      </trkpt>
      <trkpt lat="51.165416" lon="13.477815">
        <time>1970-01-01T00:00:00+00:00</time>
        <ele>116.0</ele>
      </trkpt>
      <trkpt lat="51.165477" lon="13.477775">
        <time>1970-01-01T00:00:00+00:00</time>
        <ele>116.0</ele>
      </trkpt>
      <trkpt lat="51.166076" lon="13.477373">
        <time>1970-01-01T00:00:00+00:00</time>
        <ele>118.0</ele>
      </trkpt>
      <trkpt lat="51.166579" lon="13.477158">
        <time>1970-01-01T00:00:00+00:00</time>
        <ele>120.0</ele>
      </trkpt>
      <trkpt lat="51.166659" lon="13.477114">
        <time>1970-01-01T00:00:00+00:00</time>
        <ele>120.0</ele>
      </trkpt>
      <trkpt lat="51.166659" lon="13.477114">
        <time>1970-01-01T00:00:00+00:00</time>
        <ele>120.0</ele>
      </trkpt>
      <trkpt lat="51.166579" lon="13.477158">
        <time>1970-01-01T00:00:00+00:00</time>
        <ele>120.0</ele>
      </trkpt>
      <trkpt lat="51.166076" lon="13.477373">
        <time>1970-01-01T00:00:00+00:00</time>
        <ele>118.0</ele>
      </trkpt>
      <trkpt lat="51.165477" lon="13.477775">
        <time>1970-01-01T00:00:00+00:00</time>
        <ele>116.0</ele>
      </trkpt>
      <trkpt lat="51.165416" lon="13.477815">
        <time>1970-01-01T00:00:00+00:00</time>
        <ele>116.0</ele>
      </trkpt>
      <trkpt lat="51.165373" lon="13.477779">
        <time>1970-01-01T00:00:00+00:00</time>
        <ele>116.0</ele>
      </trkpt>
      <trkpt lat="51.165291" lon="13.477717">
        <time>1970-01-01T00:00:00+00:00</time>
        <ele>116.0</ele>
      </trkpt>
      <trkpt lat="51.165242" lon="13.477669">
        <time>1970-01-01T00:00:00+00:00</time>
        <ele>116.0</ele>
      </trkpt>
      <trkpt lat="51.165265" lon="13.477567">
        <time>1970-01-01T00:00:00+00:00</time>
        <ele>115.0</ele>
      </trkpt>
      <trkpt lat="51.165297" lon="13.477417">
        <time>1970-01-01T00:00:00+00:00</time>
        <ele>113.0</ele>
      </trkpt>
      <trkpt lat="51.165319" lon="13.477211">
        <time>1970-01-01T00:00:00+00:00</time>
        <ele>109.0</ele>
      </trkpt>
      <trkpt lat="51.165294" lon="13.477059">
        <time>1970-01-01T00:00:00+00:00</time>
        <ele>106.0</ele>
      </trkpt>
      <trkpt lat="51.165216" lon="13.477107">
        <time>1970-01-01T00:00:00+00:00</time>
        <ele>107.0</ele>
      </trkpt>
      <trkpt lat="51.165196" lon="13.477038">
        <time>1970-01-01T00:00:00+00:00</time>
        <ele>105.0</ele>
      </trkpt>
      <trkpt lat="51.165132" lon="13.476807">
        <time>1970-01-01T00:00:00+00:00</time>
        <ele>101.0</ele>
      </trkpt>
      <trkpt lat="51.164908" lon="13.476974">
        <time>1970-01-01T00:00:00+00:00</time>
        <ele>104.0</ele>
      </trkpt>
      <trkpt lat="51.164649" lon="13.47722">
        <time>1970-01-01T00:00:00+00:00</time>
        <ele>105.0</ele>
      </trkpt>
      <trkpt lat="51.164189" lon="13.477812">
        <time>1970-01-01T00:00:00+00:00</time>
        <ele>105.0</ele>
      </trkpt>
      <trkpt lat="51.163973" lon="13.478051">
        <time>1970-01-01T00:00:00+00:00</time>
        <ele>103.0</ele>
      </trkpt>
      <trkpt lat="51.163735" lon="13.478339">
        <time>1970-01-01T00:00:00+00:00</time>
        <ele>102.0</ele>
      </trkpt>
      <trkpt lat="51.163522" lon="13.478583">
        <time>1970-01-01T00:00:00+00:00</time>
        <ele>99.0</ele>
      </trkpt>
      <trkpt lat="51.163153" lon="13.478983">
        <time>1970-01-01T00:00:00+00:00</time>
        <ele>98.0</ele>
      </trkpt>
    </trkseg>
  </trk>
</gpx>
